Previsão horária em Jumabozor

Hoje, 18 Junho, Sexta-feira

Tempo Temperatura Precipitação Vento Pressão Humidade
00:00 +25°C° 0 mm 2 m/s 715 mmHg 28%
01:00 +24°C° 0 mm 2 m/s 715 mmHg 29%
02:00 +24°C° 0 mm 2 m/s 714 mmHg 30%
03:00 +23°C° 0 mm 2 m/s 715 mmHg 30%
04:00 +23°C° 0 mm 2 m/s 715 mmHg 30%
05:00 +23°C° 0 mm 2 m/s 715 mmHg 30%
06:00 +25°C° 0 mm 2 m/s 715 mmHg 27%
07:00 +27°C° 0 mm 2 m/s 716 mmHg 23%
08:00 +29°C° 0 mm 2 m/s 716 mmHg 20%
09:00 +31°C° 0 mm 2 m/s 716 mmHg 19%
10:00 +33°C° 0 mm 3 m/s 716 mmHg 18%
11:00 +35°C° 0 mm 3 m/s 716 mmHg 17%
12:00 +36°C° 0 mm 3 m/s 716 mmHg 15%
13:00 +36°C° 0 mm 3 m/s 716 mmHg 13%
14:00 +37°C° 0 mm 3 m/s 715 mmHg 11%
15:00 +37°C° 0 mm 3 m/s 715 mmHg 11%
16:00 +37°C° 0 mm 2 m/s 715 mmHg 11%
17:00 +37°C° 0 mm 2 m/s 715 mmHg 11%
18:00 +35°C° 0 mm 2 m/s 715 mmHg 13%
19:00 +32°C° 0 mm 2 m/s 715 mmHg 14%
20:00 +30°C° 0 mm 2 m/s 715 mmHg 16%
21:00 +29°C° 0 mm 2 m/s 715 mmHg 17%
22:00 +28°C° 0 mm 2 m/s 715 mmHg 18%
23:00 +27°C° 0 mm 3 m/s 715 mmHg 19%

Amanhã, 19 Junho, Sábado

Tempo Temperatura Precipitação Vento Pressão Humidade
00:00 +26°C° 0 mm 2 m/s 715 mmHg 20%
01:00 +26°C° 0 mm 2 m/s 715 mmHg 21%
02:00 +25°C° 0 mm 2 m/s 715 mmHg 22%
03:00 +25°C° 0 mm 2 m/s 715 mmHg 22%
04:00 +25°C° 0 mm 2 m/s 715 mmHg 22%
05:00 +24°C° 0 mm 2 m/s 715 mmHg 22%
06:00 +27°C° 0 mm 2 m/s 715 mmHg 19%
07:00 +29°C° 0 mm 2 m/s 716 mmHg 17%
08:00 +32°C° 0 mm 2 m/s 716 mmHg 15%
09:00 +34°C° 0 mm 3 m/s 716 mmHg 14%
10:00 +36°C° 0 mm 3 m/s 716 mmHg 13%
11:00 +38°C° 0 mm 3 m/s 716 mmHg 11%
12:00 +38°C° 0 mm 4 m/s 716 mmHg 11%
13:00 +40°C° 0 mm 4 m/s 715 mmHg 10%
14:00 +41°C° 0 mm 5 m/s 715 mmHg 9%
15:00 +41°C° 0 mm 5 m/s 714 mmHg 9%
16:00 +40°C° 0 mm 5 m/s 714 mmHg 9%
17:00 +40°C° 0 mm 5 m/s 714 mmHg 9%
18:00 +38°C° 0 mm 6 m/s 714 mmHg 14%
19:00 +34°C° 0 mm 6 m/s 714 mmHg 19%
20:00 +32°C° 0 mm 7 m/s 714 mmHg 24%
21:00 +30°C° 0 mm 6 m/s 714 mmHg 27%
22:00 +28°C° 0 mm 4 m/s 714 mmHg 30%
23:00 +26°C° 0 mm 3 m/s 714 mmHg 33%

Depois de amanhã, 20 Junho, Domingo

Tempo Temperatura Precipitação Vento Pressão Humidade
00:00 +25°C° 0.1 mm 3 m/s 714 mmHg 38%
01:00 +24°C° 0.1 mm 3 m/s 715 mmHg 42%
02:00 +21°C° 0.1 mm 2 m/s 715 mmHg 47%
03:00 +21°C° 0 mm 2 m/s 715 mmHg 48%
04:00 +20°C° 0 mm 2 m/s 716 mmHg 49%
05:00 +20°C° 0 mm 2 m/s 716 mmHg 50%
06:00 +21°C° 0 mm 3 m/s 716 mmHg 44%
07:00 +24°C° 0 mm 3 m/s 717 mmHg 38%
08:00 +26°C° 0 mm 4 m/s 717 mmHg 31%
09:00 +27°C° 0 mm 3 m/s 717 mmHg 28%
10:00 +29°C° 0 mm 3 m/s 717 mmHg 25%
11:00 +30°C° 0 mm 3 m/s 717 mmHg 21%
12:00 +33°C° 0 mm 3 m/s 717 mmHg 19%
13:00 +34°C° 0 mm 3 m/s 717 mmHg 17%
14:00 +35°C° 0 mm 3 m/s 716 mmHg 15%
15:00 +35°C° 0 mm 4 m/s 716 mmHg 14%
16:00 +36°C° 0 mm 5 m/s 716 mmHg 13%
17:00 +36°C° 0 mm 5 m/s 715 mmHg 12%
18:00 +33°C° 0 mm 5 m/s 715 mmHg 14%
19:00 +30°C° 0 mm 4 m/s 716 mmHg 17%
20:00 +28°C° 0 mm 3 m/s 716 mmHg 19%
21:00 +26°C° 0 mm 3 m/s 716 mmHg 21%
22:00 +25°C° 0 mm 2 m/s 716 mmHg 23%
23:00 +23°C° 0 mm 2 m/s 716 mmHg 24%

21 Junho, Segunda-feira

Tempo Temperatura Precipitação Vento Pressão Humidade
00:00 +23°C° 0 mm 2 m/s 716 mmHg 25%
01:00 +21°C° 0 mm 2 m/s 716 mmHg 25%
02:00 +22°C° 0 mm 1 m/s 716 mmHg 26%
03:00 +20°C° 0 mm 2 m/s 716 mmHg 27%
04:00 +19°C° 0 mm 2 m/s 717 mmHg 28%
05:00 +18°C° 0 mm 2 m/s 717 mmHg 29%
06:00 +20°C° 0 mm 2 m/s 717 mmHg 26%
07:00 +22°C° 0 mm 3 m/s 718 mmHg 23%
08:00 +25°C° 0 mm 3 m/s 718 mmHg 20%
09:00 +27°C° 0 mm 3 m/s 718 mmHg 18%
10:00 +28°C° 0 mm 3 m/s 719 mmHg 17%
11:00 +30°C° 0 mm 3 m/s 719 mmHg 15%
12:00 +31°C° 0 mm 3 m/s 719 mmHg 14%
13:00 +34°C° 0 mm 3 m/s 718 mmHg 12%
14:00 +35°C° 0 mm 3 m/s 718 mmHg 11%
15:00 +35°C° 0 mm 3 m/s 718 mmHg 10%
16:00 +36°C° 0 mm 3 m/s 718 mmHg 9%
17:00 +36°C° 0 mm 3 m/s 717 mmHg 8%
18:00 +34°C° 0 mm 3 m/s 717 mmHg 13%
19:00 +31°C° 0 mm 3 m/s 717 mmHg 17%
20:00 +29°C° 0 mm 3 m/s 717 mmHg 21%
21:00 +27°C° 0 mm 3 m/s 717 mmHg 23%
22:00 +26°C° 0 mm 2 m/s 717 mmHg 25%
23:00 +25°C° 0 mm 2 m/s 718 mmHg 28%

22 Junho, Terça-feira

Tempo Temperatura Precipitação Vento Pressão Humidade
00:00 +24°C° 0 mm 2 m/s 717 mmHg 29%
01:00 +24°C° 0 mm 1 m/s 717 mmHg 29%
02:00 +23°C° 0 mm 1 m/s 717 mmHg 30%
03:00 +23°C° 0 mm 1 m/s 717 mmHg 30%
04:00 +23°C° 0 mm 2 m/s 717 mmHg 30%
05:00 +23°C° 0 mm 2 m/s 718 mmHg 31%
06:00 +25°C° 0 mm 2 m/s 718 mmHg 28%
07:00 +27°C° 0 mm 2 m/s 719 mmHg 25%
08:00 +29°C° 0 mm 2 m/s 719 mmHg 23%
09:00 +31°C° 0 mm 2 m/s 719 mmHg 22%
10:00 +33°C° 0 mm 3 m/s 719 mmHg 22%
11:00 +35°C° 0 mm 3 m/s 719 mmHg 21%
12:00 +36°C° 0 mm 3 m/s 719 mmHg 20%
13:00 +37°C° 0 mm 4 m/s 718 mmHg 18%
14:00 +38°C° 0 mm 4 m/s 718 mmHg 16%
15:00 +38°C° 0 mm 4 m/s 718 mmHg 15%
16:00 +39°C° 0 mm 5 m/s 718 mmHg 14%
17:00 +39°C° 0 mm 5 m/s 717 mmHg 13%
18:00 +35°C° 0 mm 4 m/s 717 mmHg 15%
19:00 +33°C° 0 mm 4 m/s 717 mmHg 17%
20:00 +29°C° 0 mm 3 m/s 717 mmHg 19%
21:00 +28°C° 0 mm 3 m/s 717 mmHg 22%
22:00 +26°C° 0 mm 2 m/s 717 mmHg 24%
23:00 +25°C° 0 mm 2 m/s 717 mmHg 27%

23 Junho, Quarta-feira

Tempo Temperatura Precipitação Vento Pressão Humidade
00:00 +25°C° 0 mm 2 m/s 717 mmHg 27%
01:00 +24°C° 0 mm 1 m/s 717 mmHg 27%
02:00 +24°C° 0 mm 1 m/s 716 mmHg 28%
03:00 +23°C° 0 mm 2 m/s 716 mmHg 29%
04:00 +21°C° 0 mm 2 m/s 717 mmHg 31%
05:00 +21°C° 0 mm 2 m/s 717 mmHg 33%
06:00 +24°C° 0 mm 2 m/s 717 mmHg 30%
07:00 +26°C° 0 mm 3 m/s 717 mmHg 27%
08:00 +27°C° 0 mm 3 m/s 718 mmHg 25%
09:00 +29°C° 0 mm 3 m/s 718 mmHg 22%
10:00 +31°C° 0 mm 3 m/s 718 mmHg 20%
11:00 +33°C° 0 mm 4 m/s 718 mmHg 18%
12:00 +34°C° 0 mm 3 m/s 718 mmHg 16%
13:00 +35°C° 0 mm 3 m/s 718 mmHg 14%
14:00 +36°C° 0 mm 3 m/s 718 mmHg 12%
15:00 +37°C° 0 mm 3 m/s 717 mmHg 11%
16:00 +37°C° 0 mm 3 m/s 717 mmHg 11%
17:00 +37°C° 0 mm 3 m/s 717 mmHg 10%
18:00 +35°C° 0 mm 3 m/s 717 mmHg 12%
19:00 +33°C° 0 mm 3 m/s 717 mmHg 14%
20:00 +29°C° 0 mm 3 m/s 717 mmHg 16%
21:00 +28°C° 0 mm 3 m/s 717 mmHg 18%
22:00 +26°C° 0 mm 2 m/s 717 mmHg 20%
23:00 +25°C° 0 mm 2 m/s 717 mmHg 22%
Mostrar mais

Necessitamos do seu Consentimento

A Meteoprog e os seus Fornecedores de Serviços podem armazenar e aceder a dados pessoais como cookies, identificadores do dispositivo ou outras tecnologias semelhantes existentes no seu dispositivo e processar estes dados para personalizar conteúdos e anúncios, assim como funcionalidades nas redes sociais e análise de tráfego.

  • Armazenar e/ou aceder a informações no seu dispositivo

    Os cookies, identificadores do dispositivo ou outras informações podem ser armazenados ou acedidos no seu dispositivo, para os fins acima indicados.

  • Anúncios e conteúdos personalizados, medição de anúncios e conteúdos, dados sobre o público-alvo e desenvolvimento de produtos

    Os anúncios e os conteúdos podem ser personalizados com base num perfil. Podem ser adicionados dados adicionais para uma maior personalização dos anúncios e dos conteúdos. A eficácia dos anúncios e dos conteúdos pode ser medida. Podem ser obtidas informações sobre o público que visualizou os anúncios e os conteúdos. Estes dados podem ser usados para desenvolver ou melhorar sistemas, softwares ou a experiência do utilizador.

Ao clicar em "Eu concordo”, permitirá o uso de cookies, identificadores do dispositivo e web beacons mencionados ou outras tecnologias semelhantes. As configurações do navegador do seu dispositivo podem ser alteradas.

Para certos fins, podem ser invocados interesses legítimos ao invés de consentimento. Pode ler mais informação sobre este assunto na nossa Política de Privacidade e Cookies.